sat.trackr.live / text

‹ back to catalog

STARLINK-31078

NORAD 58638 · 2023-203W

PAYLOAD ACTIVE UNKNOWN

§ Identity

Operator
Country
US
Launch date
2023-12-23
Launch site
AFETR
Launch vehicle
Mass (kg)
RCS (m²)

Purposes: comms

External: N2YO · Heavens-Above · Gunter

§ Orbital elements

Epoch: 2026-05-24T23:02:07.488096Z

Period
94.27 min
Inclination
43.0050°
Eccentricity
0.0000941
Mean motion
15.27578672 rev/d
Perigee alt
482.4 km
Apogee alt
483.7 km
Semi-major
6,861.2 km
B*
3.8997e-5
RAAN
356.5584°
Arg perigee
274.3461°
Mean anomaly
85.7283°
Rev number
13,522

§ Raw data

STARLINK-310781 58638U 23203W   26144.95980889  .00000811  00000+0  38997-4 0  99922 58638  43.0050 356.5584 0000941 274.3461  85.7283 15.27578672135227

JSON: /api/v1/satellites/58638 · /tle

For live sub-satellite position, see the globe view (requires WebGL).

§ Visibility from observer

Set your observer location to see the next 7 days of passes ≥ 10°. The values pass through the URL so the page stays shareable.

No JS? Fill the form by hand. The geolocation button needs JavaScript.